This is the latest recevied weather packets stored in our database for station/object KA3RQR. If no packets are shown the sender has not sent any weather packets the latest 10 day(s).
| Time | Temp. | Humidity | Pressure | Rain* | Wind** | Luminosity | Snow |
|---|---|---|---|---|---|---|---|
| 1777848011 | 17.22° C | 31% | 1014.4 hPa | 0 mm | - | 74 W/m² | - |
| 1777847709 | 17.22° C | 30% | 1014.2 hPa | 0 mm | - | 64 W/m² | - |
| 1777847405 | 17.22° C | 30% | 1014.3 hPa | 0 mm | - | 141 W/m² | - |
| 1777847103 | 17.78° C | 29% | 1014.2 hPa | 0 mm | - | 96 W/m² | - |
| 1777846801 | 17.22° C | 33% | 1014.4 hPa | 0 mm | - | 174 W/m² | - |
| 1777846499 | 17.22° C | 29% | 1014.4 hPa | 0 mm | - | 183 W/m² | - |
| 1777846196 | 17.22° C | 30% | 1014.5 hPa | 0 mm | - | 204 W/m² | - |
| 1777845892 | 17.22° C | 31% | 1014.5 hPa | 0 mm | - | 202 W/m² | - |
| 1777845589 | 17.78° C | 30% | 1014.2 hPa | 0 mm | - | 232 W/m² | - |
| 1777845286 | 17.78° C | 30% | 1014.4 hPa | 0 mm | - | 253 W/m² | - |
| 1777844983 | 17.22° C | 30% | 1014.4 hPa | 0 mm | - | 256 W/m² | - |
| 1777844681 | 17.22° C | 30% | 1014.4 hPa | 0 mm | - | 275 W/m² | - |
| 1777844378 | 17.78° C | 29% | 1014.5 hPa | 0 mm | - | 298 W/m² | - |
| 1777844077 | 17.22° C | 29% | 1014.5 hPa | 0 mm | - | 314 W/m² | - |
| 1777843772 | 17.78° C | 31% | 1014.6 hPa | 0 mm | - | 350 W/m² | - |
| 1777843470 | 17.22° C | 31% | 1014.5 hPa | 0 mm | - | 356 W/m² | - |
| 1777843167 | 17.22° C | 32% | 1014.5 hPa | 0 mm | - | 383 W/m² | - |
| 1777842864 | 17.22° C | 29% | 1014.6 hPa | 0 mm | - | 388 W/m² | - |
| 1777842559 | 17.78° C | 29% | 1014.4 hPa | 0 mm | - | 405 W/m² | - |
| 1777842256 | 17.22° C | 31% | 1014.4 hPa | 0 mm | - | 416 W/m² | - |
| 1777841951 | 17.78° C | 31% | 1014.4 hPa | 0 mm | - | 448 W/m² | - |
| 1777841649 | 17.22° C | 32% | 1014.7 hPa | 0 mm | - | 435 W/m² | - |
| 1777841344 | 17.22° C | 30% | 1014.9 hPa | 0 mm | - | 445 W/m² | - |
| 1777841042 | 17.78° C | 30% | 1014.6 hPa | 0 mm | - | 468 W/m² | - |
| 1777840739 | 17.78° C | 31% | 1014.7 hPa | 0 mm | - | 522 W/m² | - |
* Rain latest hour (hover to see other rain measurements)
** Current wind speed in m/s (hover to see current wind gust speed)